Regional Weather Roundup
Issued by NWS

Home | Current Version | Previous Version | Text Only | Print | Product List | Glossary Off
Versions: 1 2 3 4 5 6 7 8 9 10 11 12 13 14 15 16 17 18 19 20 21 22 23 24 25 26 27 28 29 30 31 32 33 34 35 36 37 38 39 40 41 42 43 44 45 46 47 48 49 50

000
ASUS43 KOAX 040002
RWRNE

WEATHER ROUNDUP FOR NEBRASKA
NATIONAL WEATHER SERVICE OMAHA NE
600 PM CST TUE MAR 03 2015

NOTES: SATELLITE DATA IS BEING USED TO AUGMENT CLOUD COVER ABOVE
       12000 FEET.
       "FAIR" INDICATES FEW OR NO CLOUDS BELOW 12,000 FEET WITH NO
       SIGNIFICANT WEATHER AND/OR OBSTRUCTIONS TO VISIBILITY.

  * THESE STATIONS DO NOT REPORT WEATHER SUCH AS RAIN...SNOW OR FOG.

NEZ001>004-019>022-054>056-040100-
NEBRASKA PANHANDLE

CITY           SKY/WX    TMP DP  RH WIND       PRES   REMARKS
SCOTTSBLUFF    CLOUDY    19   7  59 N10       29.94R WCI   7
6HR MIN TEMP:  19; 6HR MAX TEMP:  23; 6HR PCP: TRACE;

ALLIANCE       CLOUDY    18  10  71 NW13      29.92R WCI   5
6HR MIN TEMP:  17; 6HR MAX TEMP:  21; 6HR PCP: TRACE;

CHADRON        LGT SNOW  17  11  77 CALM      29.97R
6HR MIN TEMP:  16; 6HR MAX TEMP:  19; 6HR PCP:  0.02;

KIMBALL        CLOUDY    17  11  76 N8        29.84S HAZE    WCI   7
SIDNEY         CLOUDY    21   9  59 N8        29.90R WCI  11
6HR MIN TEMP:  21; 6HR MAX TEMP:  25; 6HR PCP: TRACE;

$$

NEZ057>060-069>072-079>082-040100-
SOUTHWEST NEBRASKA

CITY           SKY/WX    TMP DP  RH WIND       PRES   REMARKS
NORTH PLATTE   CLEAR     24   6  46 N13       29.95R WCI  12
6HR MIN TEMP:  24; 6HR MAX TEMP:  30;

IMPERIAL         N/A     26   8  46 N10       29.93R WCI  16
6HR MIN TEMP:  25; 6HR MAX TEMP:  31;

LEXINGTON      CLEAR     28   3  34 N13       29.97R WCI  18
MCCOOK         MOCLDY    32   8  36 NE14      29.94R WCI  22
6HR MIN TEMP:  32; 6HR MAX TEMP:  36;

$$

NEZ005>010-023>029-035>040-094-040100-
NORTH CENTRAL NEBRASKA

CITY           SKY/WX    TMP DP  RH WIND       PRES   REMARKS
VALENTINE      CLOUDY    18   3  52 NW13      30.00S WCI   5
6HR MIN TEMP:  18; 6HR MAX TEMP:  21; 6HR PCP: TRACE;

AINSWORTH      CLOUDY    18   5  58 NW12      29.99S WCI   5
BROKEN BOW     CLEAR     24   3  40 N20G26    29.96R WCI  10
6HR MIN TEMP:  24; 6HR MAX TEMP:  31;

ORD            CLEAR     22   1  40 N20G26    29.98R WCI   7
6HR MIN TEMP:  22; 6HR MAX TEMP:  30; 6HR PCP: TRACE;

$$

NEZ041-046>049-061>064-073>077-083>087-040100-
SOUTH CENTRAL NEBRASKA

CITY           SKY/WX    TMP DP  RH WIND       PRES   REMARKS
GRAND ISLAND   PTCLDY    28   6  39 N20       29.99R WCI  15
6HR MIN TEMP:  28; 6HR MAX TEMP:  33;

AURORA         MOCLDY    28   2  33 N13G24    29.97R WCI  18
HASTINGS       MOCLDY    29   1  30 N17       29.96R WCI  17
6HR MIN TEMP:  29; 6HR MAX TEMP:  33;

HEBRON         MOCLDY    32  10  40 N15       29.97R WCI  21
KEARNEY *      PTCLDY    28   3  34 N17       29.97R WCI  16
$$

NEZ011>018-030>034-042>045-040100-
NORTHEAST NEBRASKA

CITY           SKY/WX    TMP DP  RH WIND       PRES   REMARKS
NORFOLK        PTCLDY    22   7  52 NW22G30   29.99R WCI   6
6HR MIN TEMP:  22; 6HR MAX TEMP:  30;

ALBION         CLEAR     24   4  43 N18G26    29.99R WCI  10
BLAIR          CLOUDY    27   8  43 NW16G24   29.97R WCI  15
COLUMBUS *     MOCLDY    25   1  36 N17G25    30.01R WCI  11
FREMONT        MOCLDY    27   4  38 NW20G26   30.00R WCI  13
TEKAMAH        MOCLDY    25   7  46 NW21      30.01R WCI  11
6HR MIN TEMP:  25; 6HR MAX TEMP:  34;

$$

NEZ050>053-065>068-078-088>093-040100-
SOUTHEAST NEBRASKA

CITY           SKY/WX    TMP DP  RH WIND       PRES   REMARKS
LINCOLN        CLOUDY    30   5  34 N20       29.99R WCI  17
6HR MIN TEMP:  30; 6HR MAX TEMP:  37;

OMAHA EPPLEY   CLOUDY    28  11  48 N16       29.99R WCI  16
6HR MIN TEMP:  28; 6HR MAX TEMP:  36;

BEATRICE       CLOUDY    31  16  53 N17       29.96R WCI  20
FALLS CITY     MOCLDY    34  19  54 N10G20    29.93R WCI  26
6HR MIN TEMP:  34; 6HR MAX TEMP:  44;

NEBRASKA CITY  CLOUDY    31  13  48 N18G24    29.95R WCI  19
$$

NEZ044-045-051>053-067-040100-
OMAHA AREA

CITY           SKY/WX    TMP DP  RH WIND       PRES   REMARKS
OMAHA EPPLEY   CLOUDY    28  11  48 N16       29.99R WCI  16
6HR MIN TEMP:  28; 6HR MAX TEMP:  36;

BLAIR          CLOUDY    27   8  43 NW16G24   29.97R WCI  15
FREMONT        MOCLDY    27   4  38 NW20G26   30.00R WCI  13
OFFUTT AFB     MOCLDY    29  14  52 N12       29.98R WCI  19
WAHOO          FAIR      28   5  38 N21       29.99R WCI  14
$$


USA.gov is the U.S. government's official web portal to all federal, state and local government web resources and services.